Location: Amon Carter Post Office
(32.8281°N, 97.0484°W)
Time: 07:45:37
(UTC+00:00)

Cosmos 1092 Rocket - Pass Details

Date: 08 December 2021
Orbit: 953 x 996 km, 83.0° (Epoch: 25 January)

Event Time Altitude Azimuth Distance (km) Brightness Sun altitude
Rises 12:46:33 0° 200° (SSW) 3,652 7.0 -6.9°
Reaches altitude 10° 12:49:08 10° 206° (SSW) 2,714 6.3 -6.4°
Maximum altitude 12:55:06 48° 279° (W) 1,268 4.3 -5.3°
Drops below altitude 10° 13:01:10 10° 353° (N) 2,754 6.1 -4.1°
Sets 13:03:50 0° 359° (N) 3,711 6.8 -3.6°
